Wind_Speed
2 2 2 2 3 5 2 3 6 7 7 6 6 6 6 7 7 8 8 8 8 8 7 7 7 7 7 6 6 7 7 8 7 7 7 7 7 7 7 8 8 8 9 9 8 8 8 8 9
2 2 2 3 3 3 2 5 7 7 8 7 7 8 7 7 8 8 8 8 8 8 8 8 8 7 8 8 8 8 8 9 8 8 7 7 7 8 8 8 9 9 9 10 10 9 9 10 10
3 3 3 3 2 2 5 7 8 8 7 8 9 8 7 8 8 8 8 9 9 8 8 8 8 9 9 9 8 9 9 9 8 8 8 8 7 8 8 9 10 10 10 11 11 11 10 11 10
5 4 3 1 1 5 7 8 9 8 8 8 8 9 9 8 8 8 9 9 9 9 8 9 9 9 9 9 9 9 9 9 9 9 9 9 9 9 9 10 11 11 11 11 11 11 11 11 10
6 5 2 2 2 5 9 10 11 9 7 8 8 8 9 9 9 10 9 9 9 9 9 10 9 9 10 10 10 10 10 10 10 10 10 10 10 10 10 11 12 12 12 11 11 10 11 11 11
6 4 3 3 3 6 10 11 9 9 9 8 9 8 9 9 10 10 10 10 9 10 10 10 10 10 10 11 11 11 12 11 11 11 11 11 11 11 11 12 13 13 13 12 12 11 11 11 11
6 5 4 4 4 8 11 11 9 9 10 10 9 9 10 10 9 9 10 10 10 10 9 10 11 11 11 11 11 12 12 12 13 13 13 12 12 13 13 13 13 14 14 13 13 13 12 12 13
7 7 6 6 5 8 12 12 10 11 10 9 10 10 10 9 10 10 10 11 10 9 10 11 11 11 11 11 12 12 13 13 13 13 13 13 13 13 13 14 14 14 14 14 14 14 13 13 14
9 7 8 5 6 9 11 12 12 11 10 10 10 11 11 10 10 11 11 11 10 10 11 11 11 11 12 12 12 12 13 13 14 14 14 14 14 14 14 14 14 14 14 13 14 14 15 15 15
10 9 9 8 8 9 10 12 13 10 10 11 11 11 11 11 11 11 12 12 11 11 12 12 13 13 12 13 13 13 13 14 14 14 15 15 15 14 13 13 13 13 13 13 13 14 15 16 16
13 13 11 11 10 12 12 12 12 10 11 11 12 12 13 12 12 12 12 12 12 12 12 13 14 14 13 13 12 13 14 15 15 15 15 15 15 14 13 13 13 13 13 14 15 16 16 16 17
14 15 15 14 13 14 13 13 12 13 13 12 13 12 13 13 13 12 12 13 13 13 13 14 13 14 14 14 14 15 16 16 16 16 16 16 15 14 14 14 15 14 15 15 16 17 16 16 17
15 14 14 13 13 15 14 13 12 12 14 14 13 14 13 13 14 14 14 14 15 15 14 15 13 14 14 15 17 17 17 16 16 16 16 16 15 15 15 16 17 16 16 17 16 16 16 16 17
15 14 14 14 15 16 15 14 14 15 15 14 14 14 14 14 14 14 15 15 15 16 16 16 16 15 16 17 18 18 17 17 17 17 17 16 15 16 16 16 17 17 17 17 17 17 17 17 18
16 15 14 14 15 16 15 15 14 15 17 16 16 15 15 14 14 15 16 16 16 17 17 17 17 18 18 19 19 18 18 17 17 18 17 16 16 16 16 16 16 17 18 18 18 17 17 17 18
14 13 14 14 15 16 16 16 15 16 18 18 18 17 17 16 16 16 16 17 17 17 18 18 18 18 18 18 18 18 18 19 19 18 17 16 16 16 16 16 16 17 18 18 18 17 17 18 18
14 13 14 14 14 16 18 17 16 18 19 19 19 19 19 18 17 17 17 17 17 18 18 18 18 17 17 17 18 18 18 18 19 18 17 16 16 16 16 17 17 17 18 18 18 18 18 18 19
15 14 14 14 16 17 18 18 17 19 18 18 19 19 18 18 18 17 17 17 18 18 17 17 18 18 18 17 17 17 17 18 19 18 17 17 16 16 17 17 17 18 18 18 18 17 18 19 19
16 16 16 16 16 18 19 19 17 18 18 19 18 18 17 17 17 18 17 18 19 19 18 18 18 18 18 17 18 18 18 18 18 18 17 18 17 17 17 17 18 18 18 18 18 19 19 19 19
17 17 16 17 17 18 19 18 17 17 17 20 18 17 17 16 17 18 19 19 19 19 19 18 18 17 17 17 18 18 17 17 17 18 18 18 18 18 17 17 18 18 18 18 18 18 18 19 19
19 18 18 18 19 18 18 19 18 19 18 19 19 17 17 17 18 19 20 20 20 19 18 18 17 17 17 18 18 17 17 17 17 17 17 16 17 17 17 18 18 18 18 19 19 19 19 18 18
20 18 19 19 21 19 18 19 17 18 18 18 17 17 17 18 18 19 19 19 19 18 17 17 17 17 17 17 17 17 16 17 17 17 16 16 17 17 18 18 19 19 18 18 18 18 18 19 19
19 18 19 19 20 20 18 18 18 19 18 19 19 18 18 18 19 19 18 19 19 18 17 17 16 16 16 16 16 16 16 17 17 18 17 17 17 17 17 18 18 18 18 18 19 19 19 19 19
19 19 19 19 19 20 17 18 19 18 19 19 18 18 19 18 18 17 17 18 17 17 16 16 15 16 15 15 16 16 16 16 17 18 17 18 18 18 18 19 18 18 19 19 19 18 19 19 19
19 19 18 19 19 19 16 18 19 19 19 20 20 20 18 17 17 17 18 18 16 15 15 15 15 15 15 15 15 15 16 17 17 17 18 19 19 19 19 19 19 19 19 19 19 18 19 19 20
20 20 19 19 17 17 16 19 21 20 19 19 19 18 17 16 16 17 17 17 16 15 15 15 15 15 15 15 15 16 17 17 17 18 19 19 20 19 20 20 19 19 20 19 19 19 19 20 21
21 21 20 20 19 18 18 19 20 19 19 19 17 17 17 17 17 18 17 16 15 15 14 15 15 15 14 14 15 16 17 17 18 19 19 20 20 19 20 20 19 20 20 20 19 20 21 21 21
19 19 20 21 20 20 19 20 23 22 20 18 18 17 17 17 18 17 16 15 15 15 15 15 16 16 15 15 15 16 17 17 18 19 19 20 19 20 20 19 19 20 21 20 20 20 21 21 21
19 20 20 21 21 20 20 21 21 21 21 21 20 18 18 17 17 16 16 16 16 16 15 16 16 16 16 16 16 17 17 17 18 19 19 19 19 20 19 19 20 20 20 20 20 20 20 20 20
20 20 21 22 21 21 20 21 22 21 21 21 20 19 20 19 18 17 16 16 16 15 16 17 16 17 17 17 17 18 17 17 17 18 19 19 19 19 19 20 20 20 20 20 20 19 19 19 19
Wind_Direction
153 117 95 99 84 75 69 269 277 275 274 280 288 279 272 275 282 285 297 303 305 305 303 300 294 292 294 297 301 300 299 301 299 292 276 276 276 272 272 257 253 253 245 241 240 238 237 238 235
168 168 143 124 82 58 286 271 275 277 285 289 290 284 276 279 286 290 298 304 306 305 301 300 297 295 295 297 302 300 300 303 300 296 291 287 280 272 269 264 256 254 251 247 242 245 244 245 243
178 194 160 111 81 286 267 264 275 285 288 288 289 289 297 288 287 294 302 303 307 307 301 300 300 301 302 299 302 304 302 301 301 297 293 285 283 279 273 270 263 258 255 249 247 246 248 247 248
196 195 170 112 283 278 272 282 282 287 292 290 291 296 297 297 295 301 303 303 304 303 299 300 301 303 303 305 304 302 303 299 297 294 290 284 278 276 277 276 270 264 261 256 252 250 251 250 248
202 202 173 242 288 277 278 284 286 286 283 286 290 291 293 296 296 301 301 303 304 301 300 301 302 304 303 303 303 302 301 297 294 292 289 288 283 280 277 276 271 264 263 258 254 252 255 253 251
211 216 197 230 268 274 276 279 284 287 292 287 288 289 292 295 295 299 303 304 305 303 302 300 298 299 300 300 298 296 296 297 295 291 290 288 288 285 281 277 272 270 265 259 258 256 256 252 254
228 210 225 223 232 265 273 277 281 282 281 286 289 296 296 300 299 302 305 309 313 315 308 304 299 299 300 299 298 296 294 295 295 292 289 289 288 286 283 278 274 272 269 263 260 257 254 253 253
227 228 232 219 230 260 274 279 282 278 282 282 292 292 294 308 305 306 310 313 316 317 316 316 307 302 302 301 299 297 296 298 297 292 291 290 288 286 286 283 278 274 271 268 263 260 256 257 252
220 230 246 230 250 260 270 279 282 277 279 282 289 293 302 307 307 306 308 312 313 315 317 319 317 307 307 304 302 299 296 296 296 292 291 291 288 287 287 285 281 277 275 271 270 270 262 259 254
226 235 238 235 239 256 270 276 278 274 279 285 288 288 295 300 303 304 307 310 313 313 313 315 317 313 310 307 302 299 298 297 294 291 290 291 290 288 289 290 287 280 277 275 274 273 268 262 257
235 236 238 234 240 247 255 267 274 279 274 278 286 291 294 297 299 301 305 308 310 311 311 315 315 313 313 312 306 303 303 301 297 296 293 292 291 291 290 293 293 286 282 278 275 273 271 265 262
239 238 239 238 243 251 256 264 271 274 276 285 283 287 292 294 294 298 301 303 306 309 310 313 311 310 311 308 306 307 305 302 300 299 295 294 292 292 289 290 291 288 282 279 276 272 271 269 267
240 240 246 246 250 256 258 262 269 274 277 279 281 286 290 292 295 298 299 300 302 305 308 307 309 306 306 304 305 306 306 303 301 300 297 294 294 292 290 289 289 287 284 281 278 274 272 269 267
240 245 247 245 252 256 259 263 267 276 279 279 281 285 288 290 292 294 297 297 297 302 305 303 303 305 306 306 306 306 305 304 300 296 293 292 294 293 291 289 289 287 283 280 278 279 277 272 270
237 240 246 246 253 257 261 268 270 275 278 280 282 285 288 289 288 290 294 298 300 299 302 301 301 303 305 306 306 306 304 305 303 296 294 293 292 293 292 292 292 288 282 280 280 279 279 276 273
245 244 249 255 259 262 264 270 275 273 277 281 281 285 286 287 287 287 290 295 298 300 301 301 303 305 305 305 305 306 306 305 303 299 296 295 295 293 293 294 291 287 284 283 282 279 279 279 277
246 250 254 261 266 268 268 270 272 272 277 281 279 282 286 285 286 286 287 292 297 299 301 301 301 305 306 306 305 306 306 306 302 299 295 294 296 296 296 294 291 290 287 286 283 280 279 280 278
244 248 255 260 264 265 266 267 266 275 280 281 280 281 283 284 284 285 287 291 295 299 299 299 302 304 305 306 307 307 306 307 305 301 296 296 296 297 297 294 292 291 291 288 285 283 282 282 281
243 243 247 250 255 261 264 266 267 274 278 278 280 283 282 284 285 286 289 293 296 297 298 299 300 302 303 305 307 306 307 307 307 306 300 300 300 299 298 294 293 292 293 290 286 286 284 284 281
238 240 245 247 250 257 265 268 268 268 275 278 278 280 283 282 283 288 291 294 295 296 295 297 299 299 302 303 304 305 307 309 308 306 301 301 300 298 296 295 294 294 293 292 289 288 286 287 283
237 238 241 246 249 257 265 267 269 268 271 277 280 276 279 283 285 289 292 292 294 294 293 295 299 299 300 301 302 304 305 306 308 305 301 299 298 297 296 297 298 298 296 294 292 292 289 287 285
239 238 243 247 249 253 260 269 270 274 274 276 282 281 285 284 284 286 289 292 294 293 293 293 297 296 298 300 301 301 302 304 305 306 305 303 301 301 299 297 297 298 298 298 296 295 290 288 287
243 241 245 247 251 253 250 259 262 274 277 281 279 281 285 285 284 285 287 290 291 292 293 293 296 297 297 300 301 302 304 306 308 309 309 307 306 304 304 302 301 300 299 298 298 295 291 290 289
239 243 247 248 250 253 254 256 260 268 274 278 281 284 286 285 283 284 288 290 288 291 293 293 294 295 297 300 302 302 303 305 308 308 308 308 306 304 304 304 304 303 302 300 298 296 294 292 291
234 238 245 249 250 254 255 256 255 262 270 278 279 282 282 282 280 284 289 290 290 291 294 298 299 299 297 298 300 301 302 305 308 307 306 307 306 305 303 302 302 303 302 300 297 296 296 294 293
236 235 239 245 249 254 253 253 257 263 272 278 280 283 286 286 284 284 288 290 290 291 294 298 300 299 297 298 299 300 302 304 306 307 306 306 306 304 304 301 301 301 301 299 295 294 295 295 294
235 237 242 244 245 249 254 262 261 263 267 273 279 282 282 284 285 286 286 286 289 292 295 299 299 300 299 298 301 302 305 307 307 307 307 306 304 302 303 302 301 302 302 300 298 296 295 294 293
238 238 240 240 245 247 251 256 263 262 267 273 277 276 277 279 282 285 284 286 287 289 292 295 298 300 301 299 301 305 310 308 309 310 308 308 305 302 303 302 301 301 302 301 299 297 295 295 293
241 241 238 240 247 250 253 255 256 260 260 263 271 274 276 278 284 286 285 283 286 288 291 295 299 300 301 301 304 306 307 308 309 311 311 310 308 305 304 302 301 301 301 301 299 298 297 295 293
237 240 242 245 247 249 253 261 262 264 263 263 266 272 275 278 281 284 282 283 284 285 289 292 294 299 301 301 302 304 305 306 310 311 312 311 311 309 306 305 304 302 303 303 302 300 298 295 291
Height
5887 5888 5888 5889 5890 5890 5891 5891 5890 5890 5889 5889 5888 5887 5886 5886 5886 5888 5885 5883 5883 5883 5882 5881 5880 5880 5879 5879 5878 5878 5877 5876 5876 5875 5874 5874 5873 5873 5873 5873 5873 5873 5873 5874 5874 5874 5875 5876 5876
5887 5888 5889 5889 5890 5891 5891 5891 5889 5888 5888 5887 5886 5886 5885 5884 5885 5884 5883 5882 5882 5882 5881 5880 5879 5879 5878 5878 5877 5877 5876 5875 5874 5874 5873 5872 5872 5872 5871 5871 5872 5872 5872 5872 5873 5873 5873 5874 5875
5887 5888 5889 5889 5890 5891 5890 5889 5888 5887 5887 5886 5885 5884 5883 5883 5883 5883 5882 5881 5881 5881 5880 5879 5878 5878 5877 5877 5876 5875 5875 5874 5873 5873 5872 5871 5871 5871 5870 5870 5870 5870 5870 5871 5871 5871 5871 5872 5873
5886 5887 5888 5890 5890 5891 5889 5888 5887 5886 5885 5885 5884 5884 5883 5882 5882 5881 5880 5880 5880 5879 5878 5878 5877 5876 5876 5875 5875 5874 5873 5872 5872 5871 5871 5870 5870 5869 5869 5869 5869 5868 5869 5869 5869 5870 5870 5871 5871
5885 5886 5887 5889 5890 5890 5890 5888 5887 5885 5884 5884 5883 5883 5881 5881 5881 5880 5879 5879 5878 5878 5877 5876 5876 5875 5874 5874 5873 5872 5871 5871 5870 5869 5869 5868 5868 5868 5867 5867 5867 5866 5867 5867 5867 5868 5868 5869 5870
5884 5885 5886 5888 5890 5891 5889 5887 5886 5885 5883 5882 5882 5882 5880 5880 5879 5878 5878 5877 5876 5876 5875 5875 5874 5873 5872 5872 5871 5870 5869 5868 5868 5867 5867 5866 5865 5865 5865 5865 5864 5864 5864 5865 5865 5865 5866 5867 5868
5883 5883 5885 5887 5889 5890 5888 5886 5885 5884 5883 5882 5880 5880 5879 5878 5877 5877 5876 5875 5875 5874 5874 5873 5872 5871 5870 5870 5869 5868 5867 5866 5866 5865 5864 5864 5863 5863 5863 5862 5862 5862 5862 5863 5863 5863 5864 5864 5865
5881 5882 5883 5886 5887 5888 5886 5884 5884 5883 5882 5881 5879 5879 5877 5877 5876 5875 5874 5874 5873 5873 5872 5871 5870 5869 5868 5868 5867 5866 5865 5864 5863 5863 5862 5861 5861 5860 5860 5860 5859 5859 5860 5860 5860 5860 5861 5862 5862
5880 5882 5882 5884 5887 5886 5883 5883 5882 5881 5880 5879 5878 5878 5876 5876 5875 5874 5873 5872 5871 5871 5871 5870 5869 5868 5867 5866 5865 5864 5863 5862 5861 5860 5860 5859 5858 5858 5857 5857 5857 5856 5857 5857 5857 5858 5858 5858 5859
5878 5879 5881 5883 5884 5883 5882 5882 5880 5879 5879 5878 5877 5876 5875 5874 5874 5873 5872 5871 5870 5870 5869 5868 5867 5866 5865 5864 5862 5861 5860 5860 5859 5858 5857 5857 5856 5855 5855 5854 5854 5854 5854 5854 5854 5854 5855 5855 5856
5876 5877 5878 5880 5881 5880 5880 5880 5878 5877 5877 5875 5875 5875 5874 5873 5872 5871 5871 5870 5869 5869 5868 5867 5865 5864 5863 5862 5859 5858 5858 5857 5856 5855 5854 5853 5853 5852 5852 5851 5851 5851 5851 5851 5851 5851 5851 5852 5852
5873 5874 5875 5877 5877 5877 5877 5877 5876 5876 5875 5873 5873 5872 5872 5871 5870 5870 5869 5868 5868 5867 5866 5865 5864 5862 5861 5860 5858 5857 5856 5855 5854 5853 5852 5851 5850 5850 5849 5849 5848 5848 5847 5847 5847 5847 5847 5848 5848
5869 5871 5873 5874 5874 5874 5874 5873 5873 5873 5873 5873 5872 5871 5870 5869 5869 5868 5867 5866 5865 5865 5864 5863 5861 5860 5859 5858 5856 5855 5854 5852 5851 5850 5849 5848 5847 5847 5846 5845 5844 5844 5843 5843 5843 5843 5843 5843 5844
5866 5867 5869 5870 5871 5871 5872 5872 5871 5871 5870 5870 5869 5868 5867 5867 5866 5865 5865 5863 5863 5863 5862 5861 5859 5858 5857 5855 5854 5852 5851 5850 5848 5847 5846 5844 5844 5843 5842 5841 5841 5840 5839 5839 5839 5839 5839 5839 5840
5862 5864 5866 5867 5868 5868 5869 5868 5868 5869 5868 5867 5866 5864 5865 5865 5864 5863 5862 5862 5861 5861 5860 5859 5857 5856 5854 5853 5851 5849 5848 5847 5845 5844 5842 5841 5841 5840 5839 5838 5837 5836 5835 5835 5834 5835 5835 5835 5835
5858 5860 5862 5864 5865 5865 5867 5866 5865 5865 5865 5865 5863 5861 5862 5862 5861 5861 5860 5859 5859 5858 5857 5856 5854 5853 5851 5850 5848 5847 5845 5844 5843 5841 5840 5839 5837 5836 5835 5834 5833 5832 5831 5830 5830 5830 5830 5830 5830
5855 5858 5860 5862 5862 5863 5864 5864 5864 5861 5861 5861 5860 5859 5859 5858 5858 5858 5857 5856 5856 5855 5854 5853 5851 5850 5849 5847 5845 5844 5842 5841 5840 5838 5837 5835 5834 5833 5831 5830 5829 5828 5827 5826 5826 5826 5826 5826 5826
5853 5855 5858 5860 5861 5861 5861 5861 5861 5859 5858 5858 5858 5856 5855 5855 5854 5854 5854 5853 5853 5852 5851 5850 5848 5847 5846 5844 5842 5841 5839 5838 5836 5835 5834 5832 5831 5829 5828 5827 5825 5824 5823 5822 5822 5821 5821 5821 5820
5850 5852 5855 5858 5859 5858 5858 5857 5858 5856 5856 5855 5854 5853 5852 5851 5851 5851 5851 5850 5849 5848 5847 5846 5845 5844 5842 5841 5839 5838 5837 5835 5833 5832 5830 5829 5827 5826 5824 5823 5821 5820 5819 5818 5817 5817 5816 5816 5815
5846 5849 5852 5855 5855 5855 5854 5854 5854 5852 5853 5851 5850 5850 5849 5848 5848 5847 5847 5847 5846 5845 5844 5843 5842 5841 5839 5838 5836 5835 5834 5832 5830 5828 5827 5825 5823 5822 5821 5819 5818 5816 5815 5814 5813 5812 5811 5811 5810
5842 5845 5848 5850 5851 5851 5851 5850 5849 5848 5849 5848 5847 5846 5846 5846 5845 5844 5843 5843 5842 5841 5840 5839 5839 5837 5836 5834 5833 5832 5830 5829 5827 5825 5824 5822 5820 5818 5817 5816 5814 5813 5811 5810 5809 5808 5807 5806 5806
5838 5841 5843 5845 5845 5846 5848 5846 5846 5845 5845 5844 5843 5842 5843 5842 5842 5841 5840 5839 5837 5836 5836 5836 5835 5833 5832 5831 5829 5828 5827 5826 5824 5822 5820 5819 5817 5815 5813 5812 5810 5809 5807 5805 5804 5803 5802 5801 5801
5834 5837 5838 5839 5840 5840 5842 5842 5843 5842 5841 5841 5840 5839 5839 5839 5837 5837 5837 5836 5834 5833 5832 5832 5831 5829 5828 5827 5826 5825 5824 5823 5821 5819 5818 5816 5814 5812 5810 5808 5806 5804 5803 5801 5799 5798 5797 5796 5796
5829 5832 5833 5834 5835 5836 5838 5838 5838 5839 5838 5838 5836 5836 5836 5835 5834 5833 5833 5832 5832 5831 5830 5829 5828 5826 5825 5824 5823 5822 5821 5819 5817 5815 5814 5812 5810 5808 5806 5804 5802 5800 5798 5796 5794 5793 5792 5791 5790
5825 5828 5829 5830 5831 5832 5834 5833 5833 5834 5834 5834 5834 5833 5832 5832 5831 5831 5830 5829 5829 5828 5827 5826 5825 5824 5823 5822 5820 5819 5817 5815 5814 5812 5810 5808 5806 5804 5802 5800 5797 5796 5793 5792 5790 5789 5788 5787 5785
5820 5823 5825 5827 5828 5829 5829 5828 5829 5830 5830 5831 5830 5829 5829 5829 5828 5828 5827 5826 5825 5825 5824 5823 5822 5821 5820 5818 5817 5816 5814 5812 5810 5808 5806 5804 5802 5800 5797 5795 5793 5791 5789 5787 5785 5784 5783 5782 5780
5816 5817 5820 5822 5823 5824 5825 5825 5824 5825 5826 5827 5827 5827 5826 5825 5825 5824 5823 5822 5822 5822 5821 5820 5819 5817 5816 5815 5814 5812 5810 5808 5806 5804 5802 5799 5797 5795 5793 5790 5788 5786 5784 5782 5780 5779 5778 5776 5775
5811 5813 5816 5817 5818 5819 5822 5822 5820 5820 5821 5823 5823 5822 5822 5821 5821 5820 5819 5819 5819 5818 5818 5817 5815 5814 5813 5812 5810 5809 5806 5804 5802 5800 5797 5795 5792 5790 5788 5785 5783 5781 5779 5777 5775 5774 5772 5771 5770
5808 5810 5811 5812 5814 5815 5816 5819 5816 5816 5817 5818 5819 5818 5818 5818 5817 5816 5816 5815 5815 5815 5814 5813 5812 5811 5809 5808 5806 5805 5803 5800 5798 5796 5793 5790 5788 5785 5783 5781 5778 5776 5774 5772 5770 5768 5766 5765 5764
5805 5806 5807 5808 5809 5810 5811 5814 5810 5811 5812 5813 5814 5813 5813 5814 5813 5813 5813 5812 5812 5811 5811 5810 5809 5807 5806 5804 5803 5801 5798 5796 5794 5792 5789 5786 5784 5781 5779 5776 5773 5771 5769 5767 5765 5763 5761 5759 5758